This is the latest recevied weather packets stored in our database for station/object KJ6APE. If no packets are shown the sender has not sent any weather packets the latest 10 day(s).
| Time | Temp. | Humidity | Pressure | Rain* | Wind** | Luminosity | Snow |
|---|---|---|---|---|---|---|---|
| 1778117463 | 23.89° C | 54% | 1017.6 hPa | 0 mm | - | 204 W/m² | - |
| 1778117160 | 23.89° C | 52% | 1017.5 hPa | 0 mm | - | 227 W/m² | - |
| 1778116855 | 23.89° C | 53% | 1017.7 hPa | 0 mm | - | 246 W/m² | - |
| 1778116554 | 23.89° C | 52% | 1017.4 hPa | 0 mm | - | 267 W/m² | - |
| 1778116250 | 23.89° C | 53% | 1017.2 hPa | 0 mm | - | 294 W/m² | - |
| 1778115944 | 23.89° C | 52% | 1017.4 hPa | 0 mm | - | 310 W/m² | - |
| 1778115641 | 24.44° C | 52% | 1017.5 hPa | 0 mm | - | 330 W/m² | - |
| 1778115339 | 25° C | 50% | 1017.4 hPa | 0 mm | - | 351 W/m² | - |
| 1778115034 | 24.44° C | 52% | 1017.2 hPa | 0 mm | - | 369 W/m² | - |
| 1778114732 | 25° C | 51% | 1017.6 hPa | 0 mm | - | 393 W/m² | - |
| 1778114429 | 25° C | 51% | 1017.3 hPa | 0 mm | - | 412 W/m² | - |
| 1778114125 | 25° C | 51% | 1017.3 hPa | 0 mm | - | 430 W/m² | - |
| 1778113820 | 25.56° C | 50% | 1017.4 hPa | 0 mm | - | 450 W/m² | - |
| 1778113516 | 25° C | 50% | 1017.5 hPa | 0 mm | - | 474 W/m² | - |
| 1778113213 | 25° C | 49% | 1017.5 hPa | 0 mm | - | 495 W/m² | - |
| 1778112909 | 25° C | 48% | 1017.6 hPa | 0 mm | - | 516 W/m² | - |
| 1778112607 | 25° C | 49% | 1017.7 hPa | 0 mm | - | 535 W/m² | - |
| 1778112303 | 25° C | 50% | 1017.4 hPa | 0 mm | - | 554 W/m² | - |
| 1778111998 | 25° C | 49% | 1017.5 hPa | 0 mm | - | 573 W/m² | - |
| 1778111696 | 25° C | 49% | 1017.6 hPa | 0 mm | - | 593 W/m² | - |
| 1778111391 | 25° C | 48% | 1017.6 hPa | 0 mm | - | 603 W/m² | - |
| 1778111089 | 25° C | 49% | 1017.6 hPa | 0 mm | - | 620 W/m² | - |
| 1778110786 | 25° C | 49% | 1017.6 hPa | 0 mm | - | 638 W/m² | - |
| 1778110483 | 25° C | 49% | 1017.7 hPa | 0 mm | - | 656 W/m² | - |
| 1778110179 | 25° C | 49% | 1017.5 hPa | 0 mm | - | 674 W/m² | - |
* Rain latest hour (hover to see other rain measurements)
** Current wind speed in m/s (hover to see current wind gust speed)